Palma de Mallorca, Spain

6:06 AM CEST on June 27, 2017 (GMT +0200)
Palma De Mallorca

Weather History for LEPA - April, 2014

Change the Weather History Date:

Saturday, April 5, 2014

  Actual Average Record
Temperature  
Mean Temperature 58 °F -  
Max Temperature 70 °F 67 °F 71 °F (2001)
Min Temperature 47 °F 47 °F 35 °F (2008)
Degree Days  
Heating Degree Days 6    
Growing Degree Days 8 (Base 50)    
Moisture  
Dew Point 48 °F    
Average Humidity 61    
Maximum Humidity 94    
Minimum Humidity 27    
Precipitation  
Precipitation 0.00 in 0.05 in - ()
Sea Level Pressure  
Sea Level Pressure 29.97 in    
Wind  
Wind Speed 5 mph ()    
Max Wind Speed 21 mph    
Max Gust Speed 28 mph    
Visibility 9.0 miles    
Events      
Averages and records for this station are not official NWS values.
T = Trace of Precipitation, MM = Missing Value Source: Averaged Metar Reports

Daily Weather History Graph

Daily Weather History Graph

Search for Another Location

Airport or City:

Trip Planner

Search our weather history database for the weather conditions in past years. The results will help you decide how hot, cold, wet, or windy it might be!

Date:

Astronomy

Apr. 05, 2014 Rise Set
Actual Time 7:27 AM CEST 8:16 PM CEST
Civil Twilight 7:00 AM CEST 8:44 PM CEST
Nautical Twilight 6:27 AM CEST 9:16 PM CEST
Astronomical Twilight 5:54 AM CEST 9:50 PM CEST
Moon 11:22 AM CEST (4/5) 1:13 AM CEST (4/5)
Length of Visible Light 13h 44m
Length of Day
12h 49m
Waxing Crescent, 32% of the Moon is Illuminated
Apr 5
Waxing Crescent
Apr 7
First Quarter
Apr 15
Full
Apr 22
Last Quarter
Apr 29
New

Hourly Weather History & Observations

Time (CEST) Temp. Dew Point Humidity Pressure Visibility Wind Dir Wind Speed Gust Speed Precip Events Conditions
12:00 AM 57.2 °F 50.0 °F 77% 29.92 in - SSW 6.9 mph - N/A   Clear
12:30 AM 57.2 °F 48.2 °F 72% 29.92 in - SSW 3.5 mph - N/A   Clear
1:00 AM 53.6 °F 48.2 °F 82% 29.92 in - SSW 4.6 mph - N/A   Clear
1:30 AM 50.0 °F 46.4 °F 87% 29.92 in - East 3.5 mph - N/A   Clear
2:00 AM 49 °F 46 °F 87% 29.94 in 9 mi ENE 2.3 mph - -   Scattered Clouds
2:00 AM 48.2 °F 46.4 °F 93% 29.92 in - Variable 2.3 mph - N/A   Clear
2:30 AM 50.0 °F 48.2 °F 94% 29.92 in - Variable 2.3 mph - N/A   Clear
3:00 AM 48 °F 46 °F 90% 29.94 in - NNE 2.3 mph - -  
3:00 AM 48.2 °F 46.4 °F 93% 29.92 in - Variable 1.2 mph - N/A   Clear
3:30 AM 48.2 °F 46.4 °F 93% 29.92 in - North 4.6 mph - N/A   Clear
4:00 AM 58 °F 45 °F 51% 29.93 in - WNW 8.1 mph - -  
4:00 AM 59.0 °F 46.4 °F 63% 29.92 in - NW 10.4 mph - N/A   Clear
4:30 AM 60.8 °F 44.6 °F 55% 29.92 in - NW 16.1 mph - N/A   Clear
5:00 AM 60 °F 45 °F 46% 29.93 in 9 mi WNW 1.2 mph - -   Scattered Clouds
5:00 AM 60.8 °F 46.4 °F 59% 29.92 in - NW 8.1 mph - N/A   Clear
5:30 AM 59.0 °F 46.4 °F 63% 29.92 in - Variable 5.8 mph - N/A   Clear
6:00 AM 59.0 °F 46.4 °F 63% 29.92 in - West 3.5 mph - N/A   Clear
6:30 AM 59.0 °F 46.4 °F 63% 29.92 in - Variable 1.2 mph - N/A   Clear
7:00 AM 57 °F 46 °F 57% 29.94 in - SE 6.9 mph - -  
7:00 AM 57.2 °F 46.4 °F 67% 29.92 in 6.2 mi SW 1.2 mph - N/A   Partly Cloudy
7:30 AM 60.8 °F 46.4 °F 59% 29.95 in 6.2 mi WNW 12.7 mph 25.3 mph N/A   Partly Cloudy
8:00 AM 59 °F 47 °F 53% 29.93 in 16 mi NW 17.3 mph - -   Scattered Clouds
8:00 AM 59.0 °F 48.2 °F 67% 29.92 in 6.2 mi NW 20.7 mph - N/A   Partly Cloudy
8:30 AM 59.0 °F 48.2 °F 67% 29.92 in 6.2 mi NW 16.1 mph 27.6 mph N/A   Partly Cloudy
9:00 AM 61 °F 48 °F 52% 29.96 in - NNE 3.5 mph - -  
9:00 AM 60.8 °F 48.2 °F 63% 29.95 in 6.2 mi Calm Calm - N/A   Partly Cloudy
9:30 AM 60.8 °F 50.0 °F 68% 29.95 in 6.2 mi NNW 4.6 mph - N/A   Partly Cloudy
10:00 AM 63 °F 48 °F 47% 29.97 in - NNW 6.9 mph - -  
10:00 AM 62.6 °F 48.2 °F 59% 29.98 in 6.2 mi NNW 6.9 mph - N/A   Partly Cloudy
10:30 AM 64.4 °F 50.0 °F 59% 29.98 in - WNW 5.8 mph - N/A   Clear
11:00 AM 67 °F 46 °F 35% 29.99 in 19 mi WSW 2.3 mph - -   Clear
11:00 AM 64.4 °F 46.4 °F 52% 29.98 in - WNW 4.6 mph - N/A   Clear
11:30 AM 66.2 °F 46.4 °F 49% 29.98 in - West 1.2 mph - N/A   Clear
12:00 PM 68.0 °F 46.4 °F 46% 29.98 in - West 2.3 mph - N/A   Clear
12:30 PM 68.0 °F 46.4 °F 46% 29.98 in - Variable 2.3 mph - N/A   Clear
1:00 PM 71 °F 47 °F 31% 30.00 in - NW 1.2 mph - -  
1:00 PM 69.8 °F 48.2 °F 46% 29.98 in 6.2 mi WNW 2.3 mph - N/A   Partly Cloudy
1:30 PM 69.8 °F 50.0 °F 49% 29.98 in 6.2 mi SW 8.1 mph - N/A   Partly Cloudy
2:00 PM 70 °F 49 °F 36% 29.99 in 19 mi SW 8.1 mph - -   Scattered Clouds
2:00 PM 69.8 °F 46.4 °F 43% 29.98 in 6.2 mi SW 8.1 mph - N/A   Partly Cloudy
2:30 PM 69.8 °F 50.0 °F 49% 29.98 in 6.2 mi SW 10.4 mph - N/A   Partly Cloudy
3:00 PM 70 °F 49 °F 36% 30.00 in - SW 11.5 mph - -  
3:00 PM 69.8 °F 48.2 °F 46% 29.98 in 6.2 mi SW 10.4 mph - N/A   Partly Cloudy
3:30 PM 69.8 °F 48.2 °F 46% 29.98 in 6.2 mi SW 11.5 mph - N/A   Partly Cloudy
4:00 PM 70 °F 48 °F 34% 30.00 in - SW 11.5 mph - -  
4:00 PM 69.8 °F 46.4 °F 43% 29.98 in 6.2 mi SW 10.4 mph - N/A   Partly Cloudy
4:30 PM 69.8 °F 46.4 °F 43% 29.98 in 6.2 mi SW 10.4 mph - N/A   Partly Cloudy
5:00 PM 70 °F 44 °F 27% 29.99 in 19 mi SW 9.2 mph - -   Scattered Clouds
5:00 PM 69.8 °F 44.6 °F 40% 29.98 in 6.2 mi SW 9.2 mph - N/A   Partly Cloudy
5:30 PM 69.8 °F 42.8 °F 38% 29.98 in 6.2 mi WSW 9.2 mph - N/A   Partly Cloudy
6:00 PM 71 °F 46 °F 29% 30.00 in - SW 8.1 mph - -  
6:00 PM 69.8 °F 44.6 °F 40% 29.98 in 6.2 mi SSW 6.9 mph - N/A   Partly Cloudy
6:30 PM 66.2 °F 50.0 °F 56% 30.01 in - SW 8.1 mph - N/A   Clear
7:00 PM 69 °F 50 °F 40% 30.01 in - SW 4.6 mph - -  
7:00 PM 68.0 °F 50.0 °F 52% 30.01 in - SW 3.5 mph - N/A   Clear
7:30 PM 64.4 °F 53.6 °F 68% 30.01 in - SSW 6.9 mph - N/A   Clear
8:00 PM 64 °F 52 °F 55% 30.02 in 19 mi South 5.8 mph - -  
8:00 PM 62.6 °F 51.8 °F 68% 30.01 in - SSW 3.5 mph - N/A   Clear
8:30 PM 60.8 °F 51.8 °F 72% 30.01 in - SSW 2.3 mph - N/A   Clear
9:00 PM 58 °F 52 °F 74% 30.04 in - North 2.3 mph - -  
9:00 PM 57.2 °F 51.8 °F 82% 30.04 in - Calm Calm - N/A   Clear
9:30 PM 57.2 °F 51.8 °F 82% 30.04 in - Calm Calm - N/A   Clear
10:00 PM 54 °F 50 °F 82% 30.06 in - Calm Calm - -  
10:00 PM 53.6 °F 50.0 °F 88% 30.04 in - ENE 2.3 mph - N/A   Clear
10:30 PM 53.6 °F 50.0 °F 88% 30.06 in - Variable 1.2 mph - N/A   Clear
11:00 PM 53 °F 50 °F 84% 30.09 in 12 mi Calm Calm - -  
11:00 PM 51.8 °F 48.2 °F 88% 30.06 in - Calm Calm - N/A   Clear
11:30 PM 51.8 °F 48.2 °F 88% 30.06 in - South 2.3 mph - N/A   Clear